TimeCDT,TemperatureF,Dew PointF,Humidity,Sea Level PressureIn,VisibilityMPH,Wind Direction,Wind SpeedMPH,Gust SpeedMPH,PrecipitationIn,Events,Conditions,WindDirDegrees,DateUTC
12:56 AM,68.0,64.9,90,30.02,10.0,South,4.6,-,N/A,,Clear,180,2013-05-17 05:56:00
1:56 AM,66.9,64.0,90,30.01,9.0,SSE,3.5,-,N/A,,Clear,150,2013-05-17 06:56:00
2:46 AM,66.2,64.4,94,29.99,9.0,SSE,3.5,-,N/A,,Mostly Cloudy,160,2013-05-17 07:46:00
2:56 AM,66.9,64.0,90,30.01,9.0,SE,4.6,-,N/A,,Mostly Cloudy,140,2013-05-17 07:56:00
3:18 AM,66.2,64.4,94,29.98,8.0,SE,3.5,-,N/A,,Scattered Clouds,140,2013-05-17 08:18:00
3:52 AM,66.2,64.4,94,29.99,9.0,SE,3.5,-,N/A,,Mostly Cloudy,140,2013-05-17 08:52:00
3:56 AM,66.9,64.9,93,30.01,8.0,SSE,4.6,-,N/A,,Mostly Cloudy,150,2013-05-17 08:56:00
4:24 AM,66.2,64.4,94,29.99,8.0,SSE,4.6,-,N/A,,Scattered Clouds,160,2013-05-17 09:24:00
4:56 AM,66.9,64.9,93,30.02,7.0,Calm,Calm,-,N/A,,Mostly Cloudy,0,2013-05-17 09:56:00
5:56 AM,68.0,64.9,90,30.03,8.0,SSE,3.5,-,N/A,,Overcast,160,2013-05-17 10:56:00
6:03 AM,68.0,64.4,88,30.01,7.0,SSE,3.5,-,N/A,,Overcast,160,2013-05-17 11:03:00
6:34 AM,68.0,64.4,88,30.02,5.0,Calm,Calm,-,N/A,,Overcast,0,2013-05-17 11:34:00
6:47 AM,68.0,64.4,88,30.02,5.0,SE,4.6,-,N/A,,Overcast,140,2013-05-17 11:47:00
6:56 AM,68.0,66.0,93,30.04,5.0,SSE,4.6,-,N/A,,Overcast,150,2013-05-17 11:56:00
7:56 AM,70.0,66.9,90,30.04,6.0,South,6.9,-,N/A,,Mostly Cloudy,170,2013-05-17 12:56:00
8:39 AM,71.6,66.2,83,30.03,7.0,South,10.4,-,N/A,,Overcast,180,2013-05-17 13:39:00
8:56 AM,72.0,66.9,84,30.05,8.0,SSE,8.1,-,N/A,,Overcast,160,2013-05-17 13:56:00
9:30 AM,73.4,66.2,78,30.03,9.0,South,8.1,-,N/A,,Overcast,180,2013-05-17 14:30:00
9:56 AM,73.0,66.9,81,30.05,8.0,South,5.8,-,N/A,,Overcast,170,2013-05-17 14:56:00
10:56 AM,73.9,68.0,82,30.06,9.0,South,9.2,-,N/A,,Overcast,180,2013-05-17 15:56:00
11:38 AM,75.2,68.0,78,30.03,10.0,South,6.9,-,N/A,,Overcast,180,2013-05-17 16:38:00
11:56 AM,78.1,68.0,71,30.05,10.0,South,9.2,-,N/A,,Mostly Cloudy,190,2013-05-17 16:56:00
12:15 PM,78.8,68.0,69,30.02,10.0,SSW,8.1,16.1,N/A,,Overcast,200,2013-05-17 17:15:00
12:56 PM,78.1,66.9,68,30.04,10.0,SSW,4.6,-,N/A,,Overcast,200,2013-05-17 17:56:00
1:56 PM,80.1,66.9,64,30.03,10.0,SSW,8.1,-,N/A,,Mostly Cloudy,210,2013-05-17 18:56:00
2:56 PM,81.0,68.0,65,30.00,10.0,South,9.2,21.9,N/A,,Mostly Cloudy,190,2013-05-17 19:56:00
3:56 PM,82.0,68.0,62,29.98,10.0,SSW,13.8,20.7,N/A,,Scattered Clouds,200,2013-05-17 20:56:00
4:56 PM,81.0,68.0,65,29.97,10.0,SSW,6.9,-,0.00,,Scattered Clouds,210,2013-05-17 21:56:00
5:56 PM,82.0,68.0,62,29.97,10.0,South,6.9,-,N/A,,Mostly Cloudy,190,2013-05-17 22:56:00
6:56 PM,80.1,68.0,67,29.99,10.0,SSW,4.6,-,N/A,,Scattered Clouds,200,2013-05-17 23:56:00
7:56 PM,75.9,68.0,76,29.99,10.0,Calm,Calm,-,N/A,,Clear,0,2013-05-18 00:56:00
8:37 PM,75.2,69.8,83,29.98,2.5,South,4.6,-,0.07,Rain,Light Rain,190,2013-05-18 01:37:00
8:45 PM,75.2,69.8,83,29.97,10.0,SW,3.5,-,0.07,,Overcast,230,2013-05-18 01:45:00
8:56 PM,73.9,70.0,87,30.00,10.0,Calm,Calm,-,0.07,,Mostly Cloudy,0,2013-05-18 01:56:00
9:56 PM,73.9,70.0,87,30.01,10.0,South,3.5,-,0.01,,Partly Cloudy,190,2013-05-18 02:56:00
10:56 PM,72.0,69.1,91,30.03,8.0,Variable,3.5,-,N/A,,Clear,0,2013-05-18 03:56:00
11:56 PM,72.0,69.1,91,30.04,8.0,South,4.6,-,N/A,,Mostly Cloudy,180,2013-05-18 04:56:00